GW6738 Weather Reports


Display with metric or nautical units.
time (UTC)temp
F
wind
direction
speed
MPH
gust
MPH
rain 1hr
in
rain 24hr
in
rain mn
in
humidity
%
barometer
mb
20260504181010 75 218 2.0 5.0 0.00 0.00 0.00 36 1015.5
20260504180504 75 209 2.0 6.0 0.00 0.00 0.00 37 1015.5
20260504180017 74 220 2.0 6.0 0.00 0.00 0.00 36 1015.6
20260504175504 75 221 1.0 6.0 0.00 0.00 0.00 36 1015.6
20260504175003 74 311 1.0 6.0 0.00 0.00 0.00 37 1015.6
20260504174518 74 121 1.0 4.0 0.00 0.00 0.00 37 1015.6
20260504174004 73 146 1.0 6.0 0.00 0.00 0.00 36 1015.8
20260504173510 73 284 2.0 7.0 0.00 0.00 0.00 37 1015.9
20260504173022 73 185 2.0 7.0 0.00 0.00 0.00 37 1015.7
20260504172505 72 155 1.0 5.0 0.00 0.00 0.00 37 1015.7
20260504172009 72 261 1.0 5.0 0.00 0.00 0.00 37 1015.7
20260504171530 72 186 2.0 7.0 0.00 0.00 0.00 36 1015.9
20260504171011 72 298 2.0 7.0 0.00 0.00 0.00 36 1016.0
20260504170510 72 234 2.0 6.0 0.00 0.00 0.00 39 1016.2
20260504151007 67 196 1.0 7.0 0.00 0.00 0.00 41 1017.8
20260504150510 67 290 2.0 7.0 0.00 0.00 0.00 41 1017.8
20260504141013 63 116 1.0 4.0 0.00 0.00 0.00 55 1017.4
20260504140507 62 101 2.0 4.0 0.00 0.00 0.00 57 1017.4
20260504130511 57 114 0.0 2.0 0.00 0.00 0.00 66 1017.7
20260504110506 41 227 0.0 2.0 0.00 0.00 0.00 92 1017.2
20260504100503 41 227 0.0 2.0 0.00 0.00 0.00 90 1017.4
20260504081506 43 221 0.0 0.0 0.00 0.00 0.00 89 1017.1
20260504081006 43 221 0.0 0.0 0.00 0.00 0.00 89 1017.0
20260504080505 43 221 0.0 0.0 0.00 0.00 0.00 89 1017.0
20260504050513 47 221 0.0 0.0 0.00 0.00 0.00 79 1017.4
20260504045507 47 221 0.0 0.0 0.00 0.00 0.00 77 1017.4
20260504045009 47 221 0.0 0.0 0.00 0.00 0.00 77 1017.3
20260504044526 47 221 0.0 0.0 0.00 0.00 0.00 76 1017.3
20260504044010 48 221 0.0 0.0 0.00 0.00 0.00 74 1017.2
20260504043505 48 221 0.0 0.0 0.00 0.00 0.00 74 1017.2
20260504043013 48 221 0.0 0.0 0.00 0.00 0.00 74 1017.1
20260504042505 48 221 0.0 0.0 0.00 0.00 0.00 73 1017.0
20260504042005 48 221 0.0 2.0 0.00 0.00 0.00 73 1017.0
20260504041518 48 221 0.0 2.0 0.00 0.00 0.00 73 1017.0
20260504041007 48 221 0.0 1.0 0.00 0.00 0.00 73 1017.0
20260504040507 48 221 0.0 0.0 0.00 0.00 0.00 74 1017.0
20260504040037 48 221 0.0 0.0 0.00 0.00 0.00 73 1017.1
20260504035510 49 221 0.0 0.0 0.00 0.00 0.00 73 1017.2
20260504035008 49 221 0.0 2.0 0.00 0.00 0.00 73 1017.2
20260504034525 49 221 0.0 2.0 0.00 0.00 0.00 72 1017.1
20260504034009 49 221 0.0 2.0 0.00 0.00 0.00 72 1017.1
20260504033508 49 221 0.0 2.0 0.00 0.00 0.00 72 1017.1
20260504033026 49 221 0.0 2.0 0.00 0.00 0.00 71 1017.2
20260504032503 50 221 0.0 1.0 0.00 0.00 0.00 71 1017.2
20260504032005 50 221 0.0 0.0 0.00 0.00 0.00 70 1017.2
20260504031514 50 221 0.0 0.0 0.00 0.00 0.00 68 1017.3
20260504031004 50 221 0.0 2.0 0.00 0.00 0.00 68 1017.2
20260504030508 50 221 0.0 2.0 0.00 0.00 0.00 67 1017.2
20260504030020 50 221 0.0 2.0 0.00 0.00 0.00 66 1017.3
20260504025507 51 221 0.0 1.0 0.00 0.00 0.00 64 1017.3
20260504025009 51 221 0.0 0.0 0.00 0.00 0.00 64 1017.4
20260504024522 51 221 0.0 0.0 0.00 0.00 0.00 64 1017.3
20260504024008 51 221 0.0 0.0 0.00 0.00 0.00 63 1017.3
20260504023511 52 221 0.0 0.0 0.00 0.00 0.00 62 1017.3
20260504023026 52 221 0.0 0.0 0.00 0.00 0.00 61 1017.2
20260504022509 52 221 0.0 0.0 0.00 0.00 0.00 60 1017.2
20260504022009 52 221 0.0 0.0 0.00 0.00 0.00 59 1017.1
20260504021528 52 221 0.0 0.0 0.00 0.00 0.00 59 1017.1
20260504021005 53 221 0.0 2.0 0.00 0.00 0.00 58 1017.0
20260504020504 53 221 0.0 2.0 0.00 0.00 0.00 59 1017.0
20260504020014 53 221 0.0 0.0 0.00 0.00 0.00 58 1016.9
20260504015505 53 221 0.0 0.0 0.00 0.00 0.00 56 1016.8
20260504015012 54 221 0.0 0.0 0.00 0.00 0.00 56 1016.7
20260504014525 54 221 0.0 0.0 0.00 0.00 0.00 54 1016.7
20260504014006 54 221 0.0 0.0 0.00 0.00 0.00 55 1016.7
20260504013509 55 221 0.0 0.0 0.00 0.00 0.00 53 1016.5
20260504013025 55 221 0.0 0.0 0.00 0.00 0.00 53 1016.5
20260504012510 55 221 0.0 0.0 0.00 0.00 0.00 53 1016.4
20260504012008 56 221 0.0 0.0 0.00 0.00 0.00 51 1016.4
20260504011525 56 221 0.0 0.0 0.00 0.00 0.00 51 1016.4
20260504011007 56 221 0.0 0.0 0.00 0.00 0.00 49 1016.4
20260504010514 57 221 0.0 0.0 0.00 0.00 0.00 48 1016.4
20260504010012 57 221 0.0 0.0 0.00 0.00 0.00 47 1016.4
20260504005504 58 221 0.0 0.0 0.00 0.00 0.00 46 1016.4
20260504005005 58 221 0.0 0.0 0.00 0.00 0.00 45 1016.3
20260504004521 59 221 0.0 0.0 0.00 0.00 0.00 44 1016.2
20260504004005 59 221 0.0 0.0 0.00 0.00 0.00 43 1016.2
20260504003510 59 221 0.0 0.0 0.00 0.00 0.00 42 1016.2
20260504003021 60 221 0.0 0.0 0.00 0.00 0.00 41 1016.1
20260504002506 60 221 0.0 0.0 0.00 0.00 0.00 41 1016.1
20260504002009 61 221 0.0 0.0 0.00 0.00 0.00 40 1016.1
20260504001524 61 221 0.0 0.0 0.00 0.00 0.00 39 1016.1
20260504001011 62 221 0.0 0.0 0.00 0.00 0.00 37 1016.0
20260504000507 62 221 0.0 0.0 0.00 0.00 0.00 37 1015.8
20260504000028 63 221 0.0 0.0 0.00 0.00 0.00 36 1015.8
20260503235506 63 221 0.0 0.0 0.00 0.00 0.00 36 1015.8
20260503235007 63 221 0.0 0.0 0.00 0.00 0.00 35 1015.8
20260503234506 64 221 0.0 0.0 0.00 0.00 0.00 34 1015.8
20260503234003 64 221 0.0 2.0 0.00 0.00 0.00 33 1015.8
20260503233503 64 221 0.0 2.0 0.00 0.00 0.00 32 1015.8
20260503233004 65 226 0.0 2.0 0.00 0.00 0.00 31 1016.0
20260503232503 65 240 0.0 2.0 0.00 0.00 0.00 31 1016.0
20260503232002 65 243 0.0 2.0 0.00 0.00 0.00 30 1015.9
20260503231506 65 248 1.0 3.0 0.00 0.00 0.00 30 1015.9
20260503231003 65 269 0.0 3.0 0.00 0.00 0.00 30 1015.9
20260503230504 66 238 0.0 2.0 0.00 0.00 0.00 30 1015.9
20260503230006 66 245 0.0 3.0 0.00 0.00 0.00 29 1016.0
20260503225503 66 274 1.0 3.0 0.00 0.00 0.00 29 1016.0
20260503225004 66 208 1.0 3.0 0.00 0.00 0.00 29 1016.1
20260503224507 66 196 0.0 6.0 0.00 0.00 0.00 30 1016.0
20260503224003 66 196 1.0 6.0 0.00 0.00 0.00 29 1016.0
20260503223503 66 121 2.0 4.0 0.00 0.00 0.00 29 1016.1
20260503223006 66 260 0.0 3.0 0.00 0.00 0.00 28 1016.2
20260503222503 66 236 1.0 6.0 0.00 0.00 0.00 29 1016.2
20260503222003 66 263 0.0 6.0 0.00 0.00 0.00 31 1016.1
20260503221504 66 238 1.0 3.0 0.00 0.00 0.00 29 1016.1
20260503221003 66 200 1.0 4.0 0.00 0.00 0.00 30 1016.1
20260503220504 66 218 1.0 5.0 0.00 0.00 0.00 30 1016.3
20260503220006 66 240 1.0 4.0 0.00 0.00 0.00 28 1016.3
20260503215504 66 255 1.0 5.0 0.00 0.00 0.00 29 1016.4
20260503215002 66 290 2.0 5.0 0.00 0.00 0.00 30 1016.5
20260503214504 67 209 2.0 5.0 0.00 0.00 0.00 28 1016.5
20260503214002 67 277 2.0 7.0 0.00 0.00 0.00 29 1016.5
20260503213502 67 186 1.0 7.0 0.00 0.00 0.00 29 1016.6
20260503213004 67 244 2.0 7.0 0.00 0.00 0.00 29 1016.7
20260503212503 67 196 2.0 10.0 0.00 0.00 0.00 28 1016.9
20260503212002 68 140 2.0 10.0 0.00 0.00 0.00 28 1016.8
20260503211505 68 245 1.0 8.0 0.00 0.00 0.00 29 1016.8
20260503211007 67 209 2.0 8.0 0.00 0.00 0.00 27 1016.8
20260503210503 68 260 1.0 6.0 0.00 0.00 0.00 29 1016.9
20260503210005 68 287 3.0 6.0 0.00 0.00 0.00 27 1016.9
20260503205507 68 302 1.0 2.0 0.00 0.00 0.00 28 1016.9
20260503205004 67 119 1.0 3.0 0.00 0.00 0.00 28 1016.9
20260503204529 66 163 0.0 7.0 0.00 0.00 0.00 28 1017.0
20260503204016 66 175 2.0 7.0 0.00 0.00 0.00 27 1017.2
20260503203507 67 274 2.0 7.0 0.00 0.00 0.00 26 1017.2
20260503203028 66 105 0.0 3.0 0.00 0.00 0.00 26 1017.2
20260503202510 66 128 2.0 7.0 0.00 0.00 0.00 26 1017.3
20260503202013 66 302 2.0 7.0 0.00 0.00 0.00 25 1017.4
20260503201521 66 169 1.0 4.0 0.00 0.00 0.00 28 1017.4
20260503201006 65 260 1.0 6.0 0.00 0.00 0.00 29 1017.6
20260503200507 65 308 3.0 7.0 0.00 0.00 0.00 29 1017.5
20260503200023 65 211 2.0 7.0 0.00 0.00 0.00 27 1017.6
20260503195507 65 200 2.0 6.0 0.00 0.00 0.00 27 1017.7
20260503195010 65 254 2.0 7.0 0.00 0.00 0.00 28 1017.8
20260503194524 65 213 1.0 7.0 0.00 0.00 0.00 25 1017.8
20260503194008 65 275 1.0 6.0 0.00 0.00 0.00 25 1017.9
20260503193512 65 228 2.0 7.0 0.00 0.00 0.00 26 1017.9
20260503193038 65 204 2.0 7.0 0.00 0.00 0.00 27 1017.8
20260503192507 65 196 1.0 3.0 0.00 0.00 0.00 27 1017.9
20260503192008 65 202 1.0 3.0 0.00 0.00 0.00 29 1018.0
20260503191526 64 102 1.0 3.0 0.00 0.00 0.00 27 1018.1
20260503191014 65 319 2.0 4.0 0.00 0.00 0.00 25 1018.2
20260503190507 65 167 1.0 6.0 0.00 0.00 0.00 26 1018.3
20260503190023 65 242 1.0 6.0 0.00 0.00 0.00 25 1018.3
20260503185509 65 182 1.0 4.0 0.00 0.00 0.00 25 1018.3
20260503185008 65 86 1.0 4.0 0.00 0.00 0.00 26 1018.4
20260503184527 64 267 1.0 4.0 0.00 0.00 0.00 28 1018.5
20260503184010 64 106 0.0 4.0 0.00 0.00 0.00 28 1018.5
20260503183507 63 192 0.0 4.0 0.00 0.00 0.00 27 1018.6
20260503183036 63 169 1.0 4.0 0.00 0.00 0.00 28 1018.8
20260503182509 63 51 1.0 4.0 0.00 0.00 0.00 29 1018.8
20260503182012 62 199 1.0 4.0 0.00 0.00 0.00 30 1018.9
20260503181526 62 312 1.0 3.0 0.00 0.00 0.00 30 1019.0